PLEIADES 1B

Last updated on Wed Feb 04 2026 00:02:32 GMT+0000 (Coordinated Universal Time)

1 39019U 12068A 26034.64922299 .00000654 00000+0 15052-3 0 9997 2 39019 98.2084 111.4757 0001329 102.2045 257.9304 14.58553330701386
UTC large
Height (km)
Speed (km/s)
/
Latitude / Longitude
Inclination (degrees)
Orbital Period (minutes)
Azimuth
Elevation
Range (km)
Doppler Factor

Next 0 passes for location: London (51.5072 / 0.1276)

Sorry there are no passes over London.